DEBRISSAT-1 (43621 NORAD) Tracking and Keplerian Element Data

This shows tracking and keplerian element data for the satellite.

Feedback or suggestion? Click here.




ElementValue
Catalog43621
NameDEBRISSAT-1
Epoch Orbit987
Epoch Day323.21774178
Epoch Year2018
RAAN323.4966
Inclination51.6457
Eccentricity0.0008989
Argument of Perigee54.1587
Mean Anonmoly306.0241
Mean Motion15.6235486
Decay Rate0.0005869
L11 43621U 98067PM 18323.21774178 .00058690 00000-0 65022-3 0 9996
L22 43621 51.6457 323.4966 0008989 54.1587 306.0241 15.62354860 9873

Live tracking and technical data element details for DEBRISSAT-1 (NORAD 43621). DEBRISSAT-1 can be tracked NOW for your location showing map with azimuth and elevation plus other details from your city location.

Track the satellite on the map from your city or location and see movement details for azimuth, elevation, latitude, longitude, range, height, and movement on the map or in text.







IsCatalogInMostPopularTable: catalog: 43621, numindb: 20
Update: records affected: 1



GetName: 43621 DEBRISSAT-1

Hit Count: updated at: Tue, 20 Nov 2018 11:07:46 GMT